Cameron, WI

8:36 AM CDT on July 26, 2016 (GMT -0500)
Rice Lake Regional-Carl's

Weather History for KRPD - March, 2012

Change the Weather History Date:

Tuesday, March 6, 2012

  Actual Average Record
Temperature  
Mean Temperature 38 °F -  
Max Temperature 50 °F 28 °F 51 °F (2005)
Min Temperature 26 °F 12 °F -9 °F (2003)
Degree Days  
Heating Degree Days 27    
Moisture  
Dew Point 28 °F    
Average Humidity 73    
Maximum Humidity 93    
Minimum Humidity 50    
Precipitation  
Precipitation 0.00 in - - ()
Sea Level Pressure  
Sea Level Pressure 29.70 in    
Wind  
Wind Speed 8 mph (SE)    
Max Wind Speed 14 mph    
Max Gust Speed 18 mph    
Visibility 10 miles    
Events      
Averages and records for this station are not official NWS values.
T = Trace of Precipitation, MM = Missing Value Source: NWS Daily Summary

Daily Weather History Graph

Daily Weather History Graph

Search for Another Location

Airport or City:

Trip Planner

Search our weather history database for the weather conditions in past years. The results will help you decide how hot, cold, wet, or windy it might be!

Date:

Astronomy

Mar. 06, 2012 Rise Set
Actual Time 6:35 AM CST 6:01 PM CST
Civil Twilight 6:05 AM CST 6:31 PM CST
Nautical Twilight 5:31 AM CST 7:05 PM CST
Astronomical Twilight 4:57 AM CST 7:40 PM CST
Moon 4:26 PM CST (3/6) 5:15 AM CST (3/6)
Length of Visible Light 12h 25m
Length of Day
11h 26m
Waxing Gibbous, 96% of the Moon is Illuminated
Mar 6
Waxing Gibbous
Mar 8
Full
Mar 14
Last Quarter
Mar 22
New
Mar 30
First Quarter

Hourly Weather History & Observations

Time (CST) Temp. Windchill Dew Point Humidity Pressure Visibility Wind Dir Wind Speed Gust Speed Precip Events Conditions
12:15 AM 28.4 °F 20.4 °F 21.2 °F 74% 29.93 in 10.0 mi SE 8.1 mph - N/A   Clear
12:35 AM 26.6 °F 18.2 °F 21.2 °F 80% 29.91 in 10.0 mi ESE 8.1 mph - N/A   Clear
12:55 AM 26.6 °F 18.2 °F 19.4 °F 74% 29.91 in 10.0 mi ESE 8.1 mph - N/A   Clear
1:15 AM 26.6 °F 17.5 °F 21.2 °F 80% 29.90 in 10.0 mi ESE 9.2 mph - N/A   Clear
1:55 AM 26.6 °F 16.2 °F 21.2 °F 80% 29.88 in 10.0 mi SE 11.5 mph - N/A   Clear
2:15 AM 26.6 °F 17.5 °F 21.2 °F 80% 29.87 in 10.0 mi SE 9.2 mph - N/A   Clear
2:55 AM 26.6 °F 17.5 °F 21.2 °F 80% 29.85 in 10.0 mi SE 9.2 mph - N/A   Clear
3:15 AM 26.6 °F 18.2 °F 21.2 °F 80% 29.84 in 10.0 mi ESE 8.1 mph - N/A   Clear
3:55 AM 26.6 °F 19.1 °F 21.2 °F 80% 29.83 in 10.0 mi ESE 6.9 mph - N/A   Clear
4:15 AM 26.6 °F 19.1 °F 21.2 °F 80% 29.82 in 10.0 mi ESE 6.9 mph - N/A   Clear
4:35 AM 26.6 °F 17.5 °F 21.2 °F 80% 29.81 in 10.0 mi ESE 9.2 mph - N/A   Clear
4:55 AM 26.6 °F 17.5 °F 21.2 °F 80% 29.79 in 10.0 mi ESE 9.2 mph - N/A   Clear
5:15 AM 26.6 °F 18.2 °F 21.2 °F 80% 29.79 in 10.0 mi ESE 8.1 mph - N/A   Clear
5:35 AM 26.6 °F 18.2 °F 21.2 °F 80% 29.79 in 10.0 mi ESE 8.1 mph - N/A   Clear
5:55 AM 26.6 °F 18.2 °F 21.2 °F 80% 29.78 in 10.0 mi SE 8.1 mph - N/A   Clear
6:35 AM 26.6 °F 18.2 °F 21.2 °F 80% 29.77 in 10.0 mi ESE 8.1 mph - N/A   Clear
6:55 AM 26.6 °F 20.0 °F 21.2 °F 80% 29.76 in 10.0 mi ESE 5.8 mph - N/A   Clear
7:15 AM 26.6 °F 18.2 °F 21.2 °F 80% 29.76 in 10.0 mi ESE 8.1 mph - N/A   Clear
7:35 AM 28.4 °F 19.7 °F 21.2 °F 74% 29.75 in 10.0 mi ESE 9.2 mph - N/A   Clear
7:55 AM 28.4 °F 20.4 °F 23.0 °F 80% 29.74 in 10.0 mi ESE 8.1 mph - N/A   Clear
8:15 AM 30.2 °F 20.2 °F 23.0 °F 75% 29.74 in 10.0 mi ESE 12.7 mph 17.3 mph N/A   Clear
8:35 AM 30.2 °F 20.2 °F 23.0 °F 75% 29.73 in 10.0 mi ESE 12.7 mph - N/A   Clear
9:15 AM 32.0 °F 22.1 °F 24.8 °F 75% 29.71 in 10.0 mi SE 13.8 mph 18.4 mph N/A   Clear
9:35 AM 32.0 °F 23.0 °F 24.8 °F 75% 29.71 in 10.0 mi ESE 11.5 mph - N/A   Clear
9:55 AM 33.8 °F 26.4 °F 26.6 °F 75% 29.70 in 10.0 mi ESE 9.2 mph - N/A   Clear
10:15 AM 33.8 °F 25.3 °F 26.6 °F 75% 29.70 in 10.0 mi SE 11.5 mph - N/A   Clear
10:55 AM 37.4 °F 29.3 °F 26.6 °F 65% 29.68 in 10.0 mi ESE 12.7 mph - N/A   Clear
11:15 AM 37.4 °F 28.9 °F 26.6 °F 65% 29.68 in 10.0 mi SE 13.8 mph - N/A   Clear
11:35 AM 37.4 °F 29.3 °F 28.4 °F 70% 29.67 in 10.0 mi ESE 12.7 mph - N/A   Clear
11:55 AM 39.2 °F 32.5 °F 28.4 °F 65% 29.66 in 10.0 mi SE 10.4 mph - N/A   Clear
12:15 PM 41.0 °F 34.3 °F 28.4 °F 61% 29.66 in 10.0 mi SE 11.5 mph 16.1 mph N/A   Clear
1:15 PM 42.8 °F 37.0 °F 30.2 °F 61% 29.63 in 10.0 mi ESE 10.4 mph - N/A   Clear
1:35 PM 42.8 °F 36.2 °F 30.2 °F 61% 29.61 in 10.0 mi ESE 12.7 mph - N/A   Clear
1:55 PM 44.6 °F 39.7 °F 30.2 °F 57% 29.61 in 10.0 mi SE 9.2 mph - N/A   Clear
2:35 PM 46.4 °F 41.5 °F 30.2 °F 53% 29.59 in 10.0 mi ESE 10.4 mph - N/A   Clear
2:55 PM 46.4 °F 41.9 °F 32.0 °F 57% 29.59 in 10.0 mi SE 9.2 mph - N/A   Clear
3:15 PM 46.4 °F 41.9 °F 32.0 °F 57% 29.60 in 10.0 mi SE 9.2 mph - N/A   Clear
3:55 PM 46.4 °F 42.4 °F 32.0 °F 57% 29.60 in 10.0 mi SE 8.1 mph - N/A   Clear
4:15 PM 50.0 °F - 32.0 °F 50% 29.59 in 10.0 mi ESE 9.2 mph - N/A   Clear
4:35 PM 46.4 °F 41.5 °F 32.0 °F 57% 29.59 in 10.0 mi SE 10.4 mph - N/A   Clear
4:55 PM 46.4 °F 42.9 °F 32.0 °F 57% 29.60 in 10.0 mi SE 6.9 mph - N/A   Clear
5:15 PM 46.4 °F 44.3 °F 32.0 °F 57% 29.60 in 10.0 mi SE 4.6 mph - N/A   Clear
5:35 PM 46.4 °F 44.3 °F 32.0 °F 57% 29.61 in 10.0 mi SE 4.6 mph - N/A   Clear
6:35 PM 44.6 °F - 32.0 °F 61% 29.61 in 10.0 mi Calm Calm - N/A   Clear
6:55 PM 42.8 °F - 32.0 °F 66% 29.61 in 10.0 mi Calm Calm - N/A   Clear
7:15 PM 42.8 °F 40.1 °F 33.8 °F 70% 29.61 in 10.0 mi SE 4.6 mph - N/A   Clear
7:35 PM 42.8 °F 40.1 °F 33.8 °F 70% 29.61 in 10.0 mi SE 4.6 mph - N/A   Clear
7:55 PM 41.0 °F - 33.8 °F 76% 29.62 in 10.0 mi Calm Calm - N/A   Clear
8:15 PM 41.0 °F - 33.8 °F 76% 29.62 in 10.0 mi Calm Calm - N/A   Clear
8:35 PM 35.6 °F - 32.0 °F 87% 29.62 in 10.0 mi Calm Calm - N/A   Clear
8:55 PM 39.2 °F 37.0 °F 33.8 °F 81% 29.62 in 10.0 mi SE 3.5 mph - N/A   Clear
9:15 PM 37.4 °F 34.9 °F 33.8 °F 87% 29.63 in 10.0 mi ESE 3.5 mph - N/A   Clear
9:35 PM 37.4 °F 34.9 °F 33.8 °F 87% 29.63 in 10.0 mi ESE 3.5 mph - N/A   Clear
10:15 PM 39.2 °F 34.2 °F 35.6 °F 87% 29.63 in 10.0 mi SE 6.9 mph - N/A   Clear
10:35 PM 37.4 °F 32.8 °F 33.8 °F 87% 29.62 in 10.0 mi SE 5.8 mph - N/A   Clear
10:55 PM 39.2 °F 37.0 °F 33.8 °F 81% 29.63 in 10.0 mi SE 3.5 mph - N/A   Clear
11:15 PM 37.4 °F 33.8 °F 35.6 °F 93% 29.63 in 10.0 mi SE 4.6 mph - N/A   Clear
11:35 PM 41.0 °F 38.0 °F 35.6 °F 81% 29.63 in 10.0 mi SE 4.6 mph - N/A   Clear
11:55 PM 41.0 °F 39.0 °F 35.6 °F 81% 29.63 in 10.0 mi SE 3.5 mph - N/A   Clear